Time,TemperatureF,DewpointF,PressureIn,WindDirection,WindDirectionDegrees,WindSpeedMPH,WindSpeedGustMPH,Humidity,HourlyPrecipIn,Conditions,Clouds,dailyrainin,SoftwareType,DateUTC
2013-03-11 00:01:00,49.0,48.0,30.46,North,0,0.0,0.0,96,0.00,,,0.03,,2013-03-11 07:01:00,
2013-03-11 00:11:00,49.0,48.0,30.46,North,0,0.0,0.0,96,0.01,,,0.04,,2013-03-11 07:11:00,
2013-03-11 00:21:00,49.0,48.0,30.46,North,0,0.0,0.0,96,0.01,,,0.04,,2013-03-11 07:21:00,
2013-03-11 00:31:00,49.0,48.0,30.45,North,0,0.0,0.0,96,0.01,,,0.04,,2013-03-11 07:31:00,
2013-03-11 00:41:00,49.0,48.0,30.45,North,0,0.0,0.0,96,0.01,,,0.04,,2013-03-11 07:41:00,
2013-03-11 00:52:00,49.0,48.0,30.45,North,0,0.0,0.0,96,0.01,,,0.04,,2013-03-11 07:52:00,
2013-03-11 01:02:00,49.0,48.0,30.45,North,0,0.0,0.0,96,0.01,,,0.04,,2013-03-11 08:02:00,
2013-03-11 01:11:00,49.0,48.0,30.45,North,0,0.0,0.0,96,0.01,,,0.04,,2013-03-11 08:11:00,
2013-03-11 01:21:00,49.0,48.0,30.46,North,0,0.0,0.0,96,0.00,,,0.04,,2013-03-11 08:21:00,
2013-03-11 01:32:00,49.0,48.0,30.46,North,0,0.0,0.0,96,0.00,,,0.04,,2013-03-11 08:32:00,
2013-03-11 01:41:00,49.0,48.0,30.46,North,0,0.0,0.0,96,0.00,,,0.04,,2013-03-11 08:41:00,
2013-03-11 01:52:00,49.0,48.0,30.46,SSW,212,1.0,8.0,96,0.00,,,0.04,,2013-03-11 08:52:00,
2013-03-11 02:01:00,49.0,48.0,30.46,North,0,0.0,1.0,96,0.00,,,0.04,,2013-03-11 09:01:00,
2013-03-11 02:11:00,49.0,48.0,30.46,North,0,0.0,1.0,96,0.00,,,0.04,,2013-03-11 09:11:00,
2013-03-11 02:22:00,50.0,49.0,30.46,SSW,210,4.0,7.0,96,0.00,,,0.04,,2013-03-11 09:22:00,
2013-03-11 02:31:00,50.0,49.0,30.46,SSW,204,6.0,7.0,96,0.00,,,0.04,,2013-03-11 09:31:00,
2013-03-11 02:41:00,50.0,49.0,30.46,SSW,204,6.0,7.0,96,0.00,,,0.04,,2013-03-11 09:41:00,
2013-03-11 02:52:00,50.0,49.0,30.46,SSW,205,6.0,9.0,96,0.00,,,0.04,,2013-03-11 09:52:00,
2013-03-11 03:01:00,49.0,48.0,30.46,SSW,194,4.0,7.0,96,0.00,,,0.04,,2013-03-11 10:01:00,
2013-03-11 03:11:00,49.0,48.0,30.46,SSW,194,4.0,7.0,96,0.00,,,0.04,,2013-03-11 10:11:00,
2013-03-11 03:21:00,49.0,48.0,30.46,SSW,200,3.0,5.0,96,0.00,,,0.04,,2013-03-11 10:21:00,
2013-03-11 03:32:00,49.0,48.0,30.45,South,191,1.0,6.0,96,0.00,,,0.04,,2013-03-11 10:32:00,
2013-03-11 03:41:00,49.0,48.0,30.45,South,191,1.0,6.0,96,0.00,,,0.04,,2013-03-11 10:41:00,
2013-03-11 03:52:00,49.0,48.0,30.45,South,179,0.0,4.0,96,0.00,,,0.04,,2013-03-11 10:52:00,
2013-03-11 04:01:00,49.0,48.0,30.44,North,0,0.0,0.0,96,0.00,,,0.04,,2013-03-11 11:01:00,
2013-03-11 04:11:00,49.0,48.0,30.44,North,0,0.0,0.0,96,0.00,,,0.04,,2013-03-11 11:11:00,
2013-03-11 04:21:00,49.0,48.0,30.44,North,0,0.0,0.0,96,0.00,,,0.04,,2013-03-11 11:21:00,
2013-03-11 04:31:00,49.0,48.0,30.44,North,0,0.0,0.0,96,0.00,,,0.04,,2013-03-11 11:31:00,
2013-03-11 04:41:00,49.0,48.0,30.44,North,0,0.0,0.0,96,0.00,,,0.04,,2013-03-11 11:41:00,
2013-03-11 04:52:00,49.0,48.0,30.43,North,0,0.0,0.0,97,0.00,,,0.04,,2013-03-11 11:52:00,
2013-03-11 05:02:00,49.0,48.0,30.43,North,0,0.0,0.0,97,0.00,,,0.04,,2013-03-11 12:02:00,
2013-03-11 05:11:00,49.0,48.0,30.43,North,0,0.0,0.0,97,0.00,,,0.04,,2013-03-11 12:11:00,
2013-03-11 05:22:00,49.0,48.0,30.43,North,0,0.0,0.0,97,0.00,,,0.04,,2013-03-11 12:22:00,
2013-03-11 05:32:00,49.0,48.0,30.43,North,0,0.0,0.0,97,0.00,,,0.04,,2013-03-11 12:32:00,
2013-03-11 05:42:00,49.0,48.0,30.43,North,0,0.0,0.0,97,0.00,,,0.04,,2013-03-11 12:42:00,
2013-03-11 05:52:00,49.0,48.0,30.43,North,0,0.0,0.0,97,0.01,,,0.05,,2013-03-11 12:52:00,
2013-03-11 06:01:00,49.0,48.0,30.43,North,0,0.0,0.0,97,0.01,,,0.05,,2013-03-11 13:01:00,
2013-03-11 06:11:00,49.0,48.0,30.43,North,0,0.0,0.0,97,0.01,,,0.05,,2013-03-11 13:11:00,
2013-03-11 06:21:00,49.0,48.0,30.43,North,0,0.0,0.0,97,0.01,,,0.05,,2013-03-11 13:21:00,
2013-03-11 06:31:00,48.0,47.0,30.42,North,0,0.0,0.0,97,0.01,,,0.05,,2013-03-11 13:31:00,
2013-03-11 06:42:00,48.0,47.0,30.42,North,0,0.0,0.0,97,0.01,,,0.05,,2013-03-11 13:42:00,
2013-03-11 06:52:00,48.0,47.0,30.42,North,0,0.0,0.0,97,0.00,,,0.05,,2013-03-11 13:52:00,
2013-03-11 07:02:00,48.0,47.0,30.42,North,0,0.0,0.0,97,0.00,,,0.05,,2013-03-11 14:02:00,
2013-03-11 07:12:00,48.0,47.0,30.42,North,0,0.0,0.0,97,0.00,,,0.05,,2013-03-11 14:12:00,
2013-03-11 07:21:00,48.0,47.0,30.42,North,0,0.0,0.0,97,0.00,,,0.05,,2013-03-11 14:21:00,
2013-03-11 07:32:00,48.0,47.0,30.42,North,0,0.0,0.0,97,0.00,,,0.05,,2013-03-11 14:32:00,
2013-03-11 07:41:00,48.0,47.0,30.42,North,0,0.0,0.0,97,0.00,,,0.05,,2013-03-11 14:41:00,
2013-03-11 07:53:00,48.0,47.0,30.42,North,0,0.0,0.0,97,0.00,,,0.05,,2013-03-11 14:53:00,
2013-03-11 08:01:00,48.0,47.0,30.41,North,0,0.0,0.0,97,0.00,,,0.05,,2013-03-11 15:01:00,
2013-03-11 08:11:00,48.0,47.0,30.41,North,0,0.0,0.0,97,0.00,,,0.05,,2013-03-11 15:11:00,
2013-03-11 08:22:00,48.0,47.0,30.42,North,0,0.0,0.0,97,0.00,,,0.05,,2013-03-11 15:22:00,
2013-03-11 08:31:00,49.0,48.0,30.42,North,0,0.0,0.0,97,0.00,,,0.05,,2013-03-11 15:31:00,
2013-03-11 08:42:00,49.0,48.0,30.42,North,0,0.0,0.0,97,0.00,,,0.05,,2013-03-11 15:42:00,
2013-03-11 08:53:00,49.0,48.0,30.41,North,0,0.0,0.0,97,0.01,,,0.06,,2013-03-11 15:53:00,
2013-03-11 09:01:00,49.0,48.0,30.41,North,0,0.0,0.0,97,0.01,,,0.06,,2013-03-11 16:01:00,
2013-03-11 09:11:00,49.0,48.0,30.41,North,0,0.0,0.0,97,0.01,,,0.06,,2013-03-11 16:11:00,
2013-03-11 09:22:00,49.0,48.0,30.42,SSW,208,3.0,5.0,97,0.01,,,0.06,,2013-03-11 16:22:00,
2013-03-11 09:31:00,49.0,48.0,30.42,North,0,0.0,1.0,97,0.01,,,0.06,,2013-03-11 16:31:00,
2013-03-11 09:42:00,49.0,48.0,30.42,North,0,0.0,1.0,97,0.01,,,0.06,,2013-03-11 16:42:00,
2013-03-11 09:52:00,49.0,48.0,30.42,North,0,0.0,0.0,97,0.00,,,0.06,,2013-03-11 16:52:00,
2013-03-11 10:02:00,49.0,48.0,30.41,North,0,0.0,0.0,97,0.00,,,0.06,,2013-03-11 17:02:00,
2013-03-11 10:12:00,49.0,48.0,30.41,North,0,0.0,0.0,97,0.00,,,0.06,,2013-03-11 17:12:00,
2013-03-11 10:23:00,50.0,49.0,30.41,North,0,0.0,1.0,97,0.00,,,0.06,,2013-03-11 17:23:00,
2013-03-11 10:32:00,50.0,49.0,30.41,North,0,0.0,0.0,97,0.00,,,0.06,,2013-03-11 17:32:00,
2013-03-11 10:41:00,50.0,49.0,30.41,North,0,0.0,0.0,97,0.00,,,0.06,,2013-03-11 17:41:00,
2013-03-11 10:52:00,50.0,49.0,30.41,SW,215,4.0,5.0,97,0.00,,,0.06,,2013-03-11 17:52:00,
2013-03-11 11:01:00,50.0,49.0,30.41,SSW,211,5.0,7.0,97,0.00,,,0.06,,2013-03-11 18:01:00,
2013-03-11 11:11:00,50.0,49.0,30.41,SSW,211,5.0,7.0,97,0.00,,,0.06,,2013-03-11 18:11:00,
2013-03-11 11:21:00,50.0,49.0,30.41,SW,217,4.0,7.0,97,0.00,,,0.06,,2013-03-11 18:21:00,
2013-03-11 11:32:00,51.0,50.0,30.41,SW,218,0.0,3.0,97,0.00,,,0.06,,2013-03-11 18:32:00,
2013-03-11 11:42:00,51.0,50.0,30.41,SW,218,0.0,3.0,97,0.00,,,0.06,,2013-03-11 18:42:00,
2013-03-11 11:52:00,51.0,50.0,30.41,North,0,0.0,3.0,97,0.00,,,0.06,,2013-03-11 18:52:00,
2013-03-11 12:02:00,51.0,50.0,30.41,SSW,212,0.0,8.0,97,0.00,,,0.06,,2013-03-11 19:02:00,
2013-03-11 12:11:00,51.0,50.0,30.41,SSW,212,0.0,8.0,97,0.00,,,0.06,,2013-03-11 19:11:00,
2013-03-11 12:22:00,51.0,50.0,30.41,SW,219,2.0,4.0,97,0.00,,,0.06,,2013-03-11 19:22:00,
2013-03-11 12:32:00,51.0,50.0,30.40,SW,214,2.0,4.0,97,0.00,,,0.06,,2013-03-11 19:32:00,
2013-03-11 12:41:00,51.0,50.0,30.40,SW,214,2.0,4.0,97,0.00,,,0.06,,2013-03-11 19:41:00,
2013-03-11 12:52:00,52.0,51.0,30.40,SW,214,3.0,4.0,97,0.00,,,0.06,,2013-03-11 19:52:00,
2013-03-11 13:01:00,51.0,50.0,30.40,WSW,245,4.0,9.0,97,0.00,,,0.06,,2013-03-11 20:01:00,
2013-03-11 13:11:00,51.0,50.0,30.40,WSW,245,4.0,9.0,97,0.00,,,0.06,,2013-03-11 20:11:00,
2013-03-11 13:21:00,51.0,50.0,30.40,SSW,211,5.0,6.0,97,0.00,,,0.06,,2013-03-11 20:21:00,
2013-03-11 13:32:00,52.0,51.0,30.40,SW,215,3.0,5.0,97,0.00,,,0.06,,2013-03-11 20:32:00,
2013-03-11 13:42:00,52.0,51.0,30.40,SW,215,3.0,5.0,97,0.00,,,0.06,,2013-03-11 20:42:00,
2013-03-11 13:52:00,52.0,51.0,30.40,SW,214,3.0,5.0,97,0.00,,,0.06,,2013-03-11 20:52:00,
2013-03-11 14:02:00,52.0,51.0,30.39,SSW,211,4.0,5.0,97,0.00,,,0.06,,2013-03-11 21:02:00,
2013-03-11 14:11:00,52.0,51.0,30.39,SSW,211,4.0,5.0,97,0.00,,,0.06,,2013-03-11 21:11:00,
2013-03-11 14:21:00,52.0,51.0,30.39,SSW,197,3.0,6.0,97,0.00,,,0.06,,2013-03-11 21:21:00,
2013-03-11 14:31:00,51.0,50.0,30.38,SSW,197,4.0,7.0,97,0.00,,,0.06,,2013-03-11 21:31:00,
2013-03-11 14:42:00,51.0,50.0,30.38,SSW,197,4.0,7.0,97,0.00,,,0.06,,2013-03-11 21:42:00,
2013-03-11 14:52:00,51.0,50.0,30.38,SSW,196,6.0,8.0,97,0.00,,,0.06,,2013-03-11 21:52:00,
2013-03-11 15:01:00,51.0,50.0,30.37,South,190,5.0,7.0,97,0.00,,,0.06,,2013-03-11 22:01:00,
2013-03-11 15:11:00,51.0,50.0,30.37,South,190,5.0,7.0,97,0.00,,,0.06,,2013-03-11 22:11:00,
2013-03-11 15:21:00,52.0,51.0,30.36,SSE,161,5.0,8.0,97,0.00,,,0.06,,2013-03-11 22:21:00,
2013-03-11 15:32:00,52.0,51.0,30.36,South,186,6.0,8.0,97,0.00,,,0.05,,2013-03-11 22:32:00,
2013-03-11 15:42:00,52.0,51.0,30.36,South,186,6.0,8.0,97,0.00,,,0.05,,2013-03-11 22:42:00,
2013-03-11 15:53:00,51.0,50.0,30.35,SSW,197,6.0,9.0,97,0.00,,,0.05,,2013-03-11 22:53:00,
2013-03-11 16:02:00,51.0,50.0,30.35,South,187,8.0,11.0,97,0.00,,,0.05,,2013-03-11 23:02:00,
2013-03-11 16:11:00,51.0,50.0,30.35,South,187,8.0,11.0,97,0.00,,,0.05,,2013-03-11 23:11:00,
2013-03-11 16:21:00,51.0,50.0,30.35,SSW,196,10.0,13.0,97,0.00,,,0.05,,2013-03-11 23:21:00,
2013-03-11 16:32:00,51.0,50.0,30.35,South,189,8.0,12.0,97,0.00,,,0.05,,2013-03-11 23:32:00,
2013-03-11 16:42:00,51.0,50.0,30.34,South,187,8.0,12.0,97,0.00,,,0.05,,2013-03-11 23:42:00,
2013-03-11 16:53:00,51.0,50.0,30.34,South,187,8.0,12.0,97,0.00,,,0.05,,2013-03-11 23:53:00,
2013-03-11 17:01:00,51.0,50.0,30.34,South,180,7.0,10.0,97,0.00,,,0.05,,2013-03-12 00:01:00,
2013-03-11 17:11:00,51.0,50.0,30.34,South,180,7.0,10.0,97,0.00,,,0.05,,2013-03-12 00:11:00,
2013-03-11 17:22:00,51.0,50.0,30.34,South,176,8.0,10.0,97,0.00,,,0.05,,2013-03-12 00:22:00,
2013-03-11 17:32:00,51.0,50.0,30.34,South,176,6.0,10.0,97,0.00,,,0.05,,2013-03-12 00:32:00,
2013-03-11 17:42:00,51.0,50.0,30.34,South,176,6.0,10.0,97,0.00,,,0.05,,2013-03-12 00:42:00,
2013-03-11 17:52:00,51.0,50.0,30.33,South,177,4.0,9.0,97,0.00,,,0.05,,2013-03-12 00:52:00,
2013-03-11 18:02:00,50.0,49.0,30.32,SSE,165,6.0,9.0,97,0.00,,,0.05,,2013-03-12 01:02:00,
2013-03-11 18:11:00,50.0,49.0,30.32,SSE,165,6.0,9.0,97,0.00,,,0.05,,2013-03-12 01:11:00,
2013-03-11 18:21:00,50.0,49.0,30.32,South,172,6.0,10.0,97,0.00,,,0.05,,2013-03-12 01:21:00,
2013-03-11 18:31:00,51.0,50.0,30.32,South,177,6.0,11.0,97,0.00,,,0.04,,2013-03-12 01:31:00,
2013-03-11 18:42:00,51.0,50.0,30.32,South,177,6.0,11.0,97,0.00,,,0.04,,2013-03-12 01:42:00,
2013-03-11 18:52:00,50.0,49.0,30.32,SSE,168,8.0,11.0,97,0.00,,,0.04,,2013-03-12 01:52:00,
2013-03-11 19:02:00,50.0,49.0,30.31,SSE,165,2.0,8.0,97,0.00,,,0.04,,2013-03-12 02:02:00,
2013-03-11 19:11:00,50.0,49.0,30.31,SSE,165,2.0,8.0,97,0.00,,,0.04,,2013-03-12 02:11:00,
2013-03-11 19:21:00,51.0,50.0,30.31,South,172,6.0,8.0,97,0.00,,,0.04,,2013-03-12 02:21:00,
2013-03-11 19:32:00,51.0,50.0,30.31,South,189,5.0,8.0,97,0.00,,,0.04,,2013-03-12 02:32:00,
2013-03-11 19:42:00,51.0,50.0,30.31,South,189,5.0,8.0,97,0.00,,,0.04,,2013-03-12 02:42:00,
2013-03-11 19:52:00,50.0,49.0,30.31,South,180,7.0,9.0,97,0.01,,,0.04,,2013-03-12 02:52:00,
2013-03-11 20:01:00,50.0,49.0,30.31,South,175,4.0,7.0,97,0.02,,,0.04,,2013-03-12 03:01:00,
2013-03-11 20:11:00,50.0,49.0,30.31,South,175,4.0,7.0,97,0.02,,,0.04,,2013-03-12 03:11:00,
2013-03-11 20:22:00,50.0,49.0,30.31,South,180,4.0,7.0,97,0.02,,,0.04,,2013-03-12 03:22:00,
2013-03-11 20:31:00,50.0,49.0,30.30,SSE,168,4.0,9.0,97,0.02,,,0.06,,2013-03-12 03:31:00,
2013-03-11 20:42:00,50.0,49.0,30.30,SSE,168,4.0,9.0,97,0.02,,,0.06,,2013-03-12 03:42:00,
2013-03-11 20:52:00,50.0,49.0,30.30,SSE,168,4.0,9.0,97,0.02,,,0.06,,2013-03-12 03:52:00,
2013-03-11 21:01:00,50.0,49.0,30.31,South,176,3.0,8.0,97,0.00,,,0.06,,2013-03-12 04:01:00,
2013-03-11 21:12:00,50.0,49.0,30.31,South,176,3.0,8.0,97,0.00,,,0.06,,2013-03-12 04:12:00,
2013-03-11 21:22:00,50.0,49.0,30.31,North,0,0.0,0.0,97,0.00,,,0.06,,2013-03-12 04:22:00,
2013-03-11 21:32:00,50.0,49.0,30.31,North,0,0.0,0.0,97,0.00,,,0.06,,2013-03-12 04:32:00,
2013-03-11 21:42:00,50.0,49.0,30.31,North,0,0.0,0.0,97,0.00,,,0.06,,2013-03-12 04:42:00,
2013-03-11 21:52:00,50.0,49.0,30.32,North,0,0.0,0.0,97,0.00,,,0.06,,2013-03-12 04:52:00,
2013-03-11 22:02:00,50.0,49.0,30.31,North,0,0.0,0.0,97,0.00,,,0.06,,2013-03-12 05:02:00,
2013-03-11 22:11:00,50.0,49.0,30.31,North,0,0.0,0.0,97,0.00,,,0.06,,2013-03-12 05:11:00,
2013-03-11 22:21:00,50.0,49.0,30.29,North,0,0.0,0.0,97,0.00,,,0.06,,2013-03-12 05:21:00,
2013-03-11 22:31:00,50.0,49.0,30.29,North,0,0.0,0.0,97,0.00,,,0.06,,2013-03-12 05:31:00,
2013-03-11 22:41:00,50.0,49.0,30.29,North,0,0.0,0.0,97,0.00,,,0.06,,2013-03-12 05:41:00,
2013-03-11 22:52:00,50.0,49.0,30.29,North,0,0.0,0.0,97,0.00,,,0.06,,2013-03-12 05:52:00,
2013-03-11 23:01:00,50.0,49.0,30.29,North,0,0.0,0.0,97,0.00,,,0.06,,2013-03-12 06:01:00,
2013-03-11 23:11:00,50.0,49.0,30.29,North,0,0.0,0.0,97,0.00,,,0.06,,2013-03-12 06:11:00,
2013-03-11 23:21:00,50.0,49.0,30.29,North,0,0.0,0.0,97,0.00,,,0.06,,2013-03-12 06:21:00,
2013-03-11 23:31:00,50.0,49.0,30.29,North,0,0.0,0.0,97,0.00,,,0.05,,2013-03-12 06:31:00,
2013-03-11 23:42:00,50.0,49.0,30.29,North,0,0.0,0.0,97,0.00,,,0.05,,2013-03-12 06:42:00,
2013-03-11 23:51:00,50.0,49.0,30.28,North,0,0.0,0.0,97,0.00,,,0.05,,2013-03-12 06:51:00,